Location: Unspecified
(0.0000°N, 0.0000°E)
Time: 10:36:21
(UTC+01:00)

Daily predictions for brighter satellites

Satellite Brightness Start Highest point End
(mag) Time Altitude Azimuth Time Altitude Azimuth Time Altitude Azimuth
ATLAS 2AS CENTAUR R/B 2.8 19:10:53 10° NNW 19:18:15 72° ENE 19:24:55 10° SSE
deb Ariane 4.2 19:15:51 10° WNW 19:18:54 27° N 19:21:29 10° ENE
Cosmos 1821 Rocket 4.4 19:14:08 10° NNE 19:19:50 42° E 19:25:37 10° SSE
Centaur AC-69 4.4 19:20:43 10° SSW 19:22:55 23° SSE 19:27:10 10° E
Intercosmos 25 4.0 19:18:59 10° N 19:23:04 70° E 19:29:36 10° S
MONITOR-E 4.4 19:21:22 10° S 19:24:34 80° W 19:27:43 10° NNW
ARIANE 5 R/B 3.1 19:21:05 10° W 19:26:15 54° N 19:30:03 10° ENE
Cosmos 1943 Rocket 2.9 19:21:47 10° S 19:26:49 34° ESE 19:31:48 10° NE
Ariane H10-3 1.3 19:29:47 10° WNW 19:31:55 47° N 19:34:37 12° E
Lacrosse 4 Rocket 3.4 19:34:39 10° SE 19:36:59 14° ESE 19:38:27 12° E
BLOCK DM-SL R/B 2.9 19:33:56 10° W 19:37:08 77° N 19:52:58 11° E
Hubble Space Telescope 0.7 19:33:00 10° WNW 19:37:09 85° NNE 19:41:18 10° ESE
Helios 1B rocket 2.6 19:37:13 10° NNE 19:41:11 49° ESE 19:45:10 10° S
Meteor 2-16 Rocket 4.5 19:35:56 10° N 19:42:01 90° E 19:48:09 10° S
Cosmos 1340 3.9 19:38:36 10° SSW 19:42:13 43° W 19:45:50 10° NNW
Cosmos 405 Rocket 4.4 19:40:26 10° SE 19:43:04 17° E 19:43:46 16° E
DELTA 2 R/B (1) 3.9 19:37:36 10° WSW 19:43:08 63° NW 19:48:02 13° NE
Cosmos 1727 Rocket 4.0 19:37:26 10° S 19:43:45 86° E 19:49:59 10° N
Cosmos 1602 Rocket 3.8 19:41:37 10° SSE 19:45:49 46° E 19:50:03 10° NNE
OTV 4 1.0 19:50:29 10° NNW 19:53:16 35° NE 19:53:53 31° ENE
Centaur Rocket 4.2 19:54:40 10° S 19:55:29 12° SSE 19:56:03 11° SE
BREEZE-M DEB 3.4 19:53:29 10° WSW 19:55:47 44° NW 19:59:55 13° NNE
Cosmos 2058 Rocket 3.5 19:55:51 12° NNE 19:59:35 39° E 20:03:41 10° SSE
Intelsat 5-1 Rocket 4.4 19:55:28 10° SW 20:00:47 41° SE 20:10:10 18° E
ARIANE 3 DEB 3.6 20:01:57 10° WSW 20:06:19 34° S 20:07:34 23° SE
Cosmos 1066 Rocket 4.1 20:01:03 10° S 20:06:41 71° E 20:11:33 13° NNE
ARIANE 44L R/B 2.8 20:04:57 10° W 20:11:14 62° S 20:12:07 40° SE
GPS 2-18 Rocket1 3.5 20:08:54 10° NW 20:12:41 45° NNE 20:13:00 43° NE
ARIANE 44LP R/B 2.3 20:11:17 10° W 20:13:23 34° NW 20:13:23 34° NW
Cosmos 1833 Rocket 2.5 20:08:59 10° NNW 20:14:34 81° ENE 20:20:11 10° SSE
SWIFT 2.8 20:10:30 10° SW 20:14:36 49° SSE 20:15:45 37° ESE
ARIANE 44L R/B 2.5 20:10:40 10° WNW 20:15:02 38° N 20:15:02 38° N
BREEZE-M DEB (TANK) 2.2 20:13:31 10° NW 20:15:44 57° NW 20:15:44 57° NW
Meteor 1-29 3.7 20:14:16 18° N 20:16:35 53° WNW 20:20:01 10° SSW
Cosmos 2228 3.2 20:16:48 43° NE 20:17:35 49° E 20:21:51 10° SSE
SJ-6B 2.9 20:14:03 10° S 20:17:51 70° WSW 20:21:35 10° NNW
Milstar 3 3.6 20:10:40 10° SW 20:18:03 65° SSE 20:24:37 28° ENE
ALOS 2.8 20:15:29 10° SSE 20:19:09 37° E 20:19:09 37° E
Cosmos 1666 4.3 20:16:48 10° NNW 20:20:22 36° W 20:23:58 10° SSW
Resurs 01 Rocket 1.7 20:16:22 10° SSE 20:20:36 48° E 20:20:36 48° E
Cosmos 2082 Rocket 2.5 20:15:43 10° NNW 20:21:21 69° WSW 20:27:02 10° S
Cosmos 1190 Rocket 4.2 20:21:12 40° NE 20:22:17 46° ENE 20:27:14 10° SSE
HJ-1C 4.4 20:20:45 10° SSE 20:22:42 33° SSE 20:22:42 33° SSE
FREGAT/IRIS 4.4 20:28:05 10° SSW 20:30:55 32° W 20:32:59 15° NW
Resurs 1-3 4.5 20:30:42 10° SSE 20:33:24 35° SE 20:33:24 35° SE
deb Ariane 4.3 20:32:11 10° W 20:36:12 88° S 20:46:28 23° E
ARIANE 5 R/B 3.6 20:34:41 10° SW 20:36:49 29° SSE 20:36:49 29° SSE
Spot 2 Rocket 3.5 20:40:58 10° S 20:46:05 83° WSW 20:47:57 40° NNW
Ariane H10+ 4.2 20:43:05 10° WNW 20:45:29 39° NNW 20:45:29 39° NNW
FENGYUN 3A 3.9 20:57:15 10° S 21:02:37 66° WSW 21:03:29 57° NW
Cosmos 1331 Rocket 4.3 20:59:23 10° SSW 21:04:13 63° WSW 21:04:13 63° WSW
H-2A R/B (2) 3.8 20:43:59 10° SW 21:06:23 37° S 21:08:09 32° SE
Cosmos 2123 Rocket 4.0 21:01:43 10° S 21:08:02 80° W 21:08:17 78° NW
Cosmos 407 Rocket 4.4 21:14:36 45° SW 21:14:36 45° SW 21:18:39 10° S
Lacrosse 4 Rocket 3.5 21:11:44 10° SW 21:14:51 25° W 21:14:51 25° W
ARIANE 5 DEB (SYLDA) 4.2 21:11:42 10° W 21:14:44 59° WSW 21:14:44 59° WSW
Hubble Space Telescope 3.5 21:15:50 10° WSW 21:18:09 16° SSW 21:18:09 16° SSW
Cosmos 2100 Rocket 4.4 21:20:36 56° SSW 21:20:36 56° SSW 21:25:27 10° S
H-2A ROCKET BODY 3.6 20:57:49 10° WSW 21:22:40 50° NW 21:23:39 47° NNW
MAQSAT/ARIANE V 4.4 13:07:22 10° W 21:57:57 70° WNW 21:57:57 70° WNW
